GFSMW_sfc_dewp_084.txt.gz
Dewpoint
29 27 32 42 52 56 60 62 63 64 62 61 61 60 61 61 62 62 62 62 62 62 62 62 62 61 59 59 59 59 58 56 56 53 55 54 55 56 54 55 53 53 53
28 28 31 42 53 56 60 62 62 62 62 60 59 59 59 61 60 60 61 62 62 62 62 62 61 60 59 58 59 59 57 56 56 53 53 52 53 54 55 55 54 55 53
29 28 29 39 52 55 59 60 61 62 60 60 60 59 60 60 60 60 61 62 62 61 61 61 60 60 59 57 58 60 58 55 55 55 51 50 48 52 54 55 54 54 54
29 28 29 33 50 54 59 60 61 61 60 60 59 58 55 56 57 60 60 61 60 61 60 61 60 60 59 58 58 59 58 56 55 55 53 52 48 48 50 53 54 54 54
30 30 31 31 46 54 59 60 60 60 60 59 59 57 56 56 57 61 60 59 59 59 59 59 59 59 59 58 58 59 59 57 56 54 54 54 53 52 47 47 51 53 53
41 39 36 36 45 54 59 59 59 58 59 60 58 58 57 57 57 60 59 58 58 58 57 57 57 58 58 58 58 59 58 57 57 55 55 53 53 51 50 48 50 50 52
46 46 42 44 49 55 58 57 58 57 59 59 58 57 57 57 57 59 58 58 58 57 57 57 56 57 57 57 57 57 57 57 57 57 56 54 53 53 51 50 47 48 51
49 47 44 49 51 55 56 56 57 57 58 58 57 57 56 56 56 58 58 58 58 58 58 57 57 56 57 57 58 57 57 57 58 57 57 56 54 55 53 50 48 47 48
48 50 45 51 53 55 55 56 57 57 57 57 56 56 56 56 56 57 57 58 59 59 59 58 57 56 56 56 57 57 56 57 57 58 58 56 57 55 54 55 54 48 48
46 50 48 52 53 55 55 58 57 56 57 56 56 56 56 56 56 56 57 57 58 58 59 59 58 56 56 56 56 55 56 56 56 56 56 56 56 56 57 55 56 55 52
43 47 52 52 54 54 56 56 55 55 55 56 56 55 56 56 56 56 56 56 57 57 58 58 57 56 55 55 54 52 53 55 56 57 56 55 56 57 57 56 55 54 54
41 44 48 53 54 55 55 55 55 55 56 56 55 55 57 56 56 55 56 57 57 57 57 58 57 57 56 55 53 51 51 51 51 53 56 55 56 56 56 56 55 55 55
38 40 42 45 51 54 55 55 55 55 55 55 54 55 55 55 55 55 56 57 56 56 56 56 57 57 57 56 54 53 53 53 54 53 52 51 54 54 55 55 55 55 55
36 37 38 40 43 45 48 52 55 55 55 54 54 54 54 55 55 55 56 55 55 55 55 56 55 56 57 57 56 55 55 54 55 55 55 54 55 55 55 55 55 55 55
34 35 35 36 37 40 42 43 46 49 51 50 49 49 49 52 54 55 56 56 56 55 55 55 56 56 56 43 45 56 57 57 57 57 57 58 56 51 53 55 56 56 55
33 33 33 33 33 35 36 38 39 42 43 43 42 43 44 44 45 46 47 47 47 45 46 46 47 41 38 36 37 41 54 56 55 55 56 56 51 51 44 44 44 49 53
32 32 32 32 31 32 33 34 35 37 37 37 38 39 40 40 41 41 40 39 39 39 39 39 38 36 35 35 36 36 44 49 41 40 40 42 40 38 40 41 36 34 34
32 32 32 32 32 32 32 33 33 33 35 34 35 36 37 37 37 37 36 35 35 34 35 34 34 34 33 35 37 37 39 35 34 33 34 34 34 34 36 41 34 32 31
32 33 34 32 31 31 32 33 32 32 31 33 34 34 35 35 35 33 33 32 32 32 31 31 31 31 32 33 36 35 33 30 30 30 31 31 31 33 37 38 31 30 29
32 32 32 32 30 29 29 30 29 29 31 32 31 33 34 34 33 33 32 32 31 30 30 29 30 31 30 31 33 32 31 29 29 29 30 30 30 30 30 30 28 26 26
32 32 32 31 30 28 28 27 27 28 28 29 30 30 31 31 32 32 32 32 31 31 31 30 30 29 30 29 30 32 30 29 29 29 29 29 28 28 29 29 31 28 29
27 26 26 27 27 29 28 26 26 27 28 28 27 28 29 29 29 31 31 31 31 31 31 30 30 29 29 28 28 28 28 29 29 29 28 28 26 26 26 27 26 27 30
25 24 24 25 26 25 25 26 28 28 27 26 26 26 26 27 28 29 29 29 30 30 29 29 29 29 30 30 26 26 25 26 29 27 25 24 24 25 25 23 24 26 28
22 22 23 23 24 25 25 25 25 25 25 25 26 25 25 25 25 24 25 27 28 28 28 28 28 28 27 28 30 29 29 27 27 26 27 25 25 23 23 24 24 24 24
22 22 22 22 23 23 24 24 24 24 24 24 24 25 24 24 23 24 25 24 26 26 26 26 26 26 25 24 24 25 27 28 26 28 28 27 26 24 23 21 19 19 18
20 20 20 21 22 23 24 24 26 27 27 27 25 25 24 24 23 22 21 22 23 22 22 23 25 24 22 21 21 20 19 20 21 25 24 23 22 19 17 16 15 15 13

GFSMW_sfc_dewp_087.txt.gz
Dewpoint
27 28 29 29 35 44 52 57 63 64 64 63 61 60 60 61 62 62 64 64 64 63 63 63 63 63 62 62 62 61 60 59 56 55 55 57 57 55 54 52 50 52 52
27 28 30 30 41 48 54 58 62 63 64 62 60 60 60 59 61 62 62 62 62 63 62 62 62 62 61 61 61 60 59 59 57 54 53 52 54 56 56 55 53 55 50
28 29 30 30 42 49 55 57 60 62 63 61 59 59 59 59 60 60 60 62 63 63 63 62 62 61 61 60 60 60 58 56 57 57 52 50 48 53 55 57 56 57 52
27 29 30 30 38 50 55 57 60 61 62 61 59 58 57 56 57 57 58 60 61 61 62 62 62 61 60 59 60 60 59 58 56 56 53 53 50 50 52 54 55 55 53
29 29 30 30 29 46 53 58 60 60 61 60 59 58 57 55 56 57 60 60 60 60 61 61 61 60 60 59 59 59 59 59 57 55 55 54 52 53 50 49 53 54 53
40 35 35 35 29 40 54 60 59 59 60 60 59 59 57 55 55 59 60 59 60 59 59 59 60 60 59 59 59 59 59 59 58 56 55 53 51 51 49 51 52 52 52
46 47 43 38 36 43 54 59 59 59 59 60 59 58 57 57 55 58 59 59 58 58 57 57 57 59 59 59 59 59 59 60 58 57 55 55 55 54 53 52 50 50 50
46 48 50 45 42 44 54 59 59 59 59 59 58 58 56 55 55 58 59 59 58 58 57 57 57 57 58 58 59 59 59 60 59 58 58 56 56 55 53 51 50 47 46
46 48 50 46 48 50 58 58 58 58 58 59 57 57 57 56 55 58 60 59 59 58 58 58 56 57 57 57 57 57 57 58 59 59 58 57 56 57 55 53 52 49 46
44 45 48 51 51 57 57 58 58 57 58 58 57 56 56 56 56 57 58 59 60 59 59 57 57 56 57 57 57 57 57 57 58 58 57 57 56 56 57 54 56 55 52
43 42 43 47 55 56 56 57 58 57 57 57 56 57 56 57 57 57 58 57 58 57 58 58 57 56 56 56 56 55 55 54 55 57 57 56 57 56 57 57 56 55 55
41 40 41 43 53 55 56 57 57 56 57 56 56 56 56 57 56 56 56 57 56 57 58 58 58 56 55 55 54 54 53 53 54 55 55 55 55 56 57 57 56 56 56
38 38 38 39 42 48 55 56 56 55 56 56 55 57 56 56 55 55 56 58 57 57 57 58 58 57 56 55 54 53 52 52 52 52 53 54 55 55 55 56 55 55 55
36 35 35 36 38 41 44 47 55 57 56 55 54 55 55 55 56 55 57 56 56 57 56 56 57 57 57 56 55 53 52 51 51 51 52 53 52 53 53 54 53 53 53
34 33 33 34 34 37 39 41 44 49 52 50 50 50 51 54 54 53 52 54 53 53 54 56 56 53 43 39 43 52 55 54 54 54 54 54 53 49 50 52 53 54 54
32 32 31 32 32 34 35 37 39 41 44 44 44 44 45 46 45 44 44 44 43 43 43 42 41 40 37 36 37 41 52 52 51 52 50 48 42 42 38 37 37 37 44
32 32 31 31 32 33 34 34 36 37 38 39 40 40 40 40 39 39 38 38 38 37 37 37 37 35 36 36 38 39 43 39 38 38 38 38 37 37 40 35 34 32 33
33 34 32 31 33 33 34 34 35 35 35 36 37 37 37 36 36 35 34 34 34 34 34 34 34 34 34 36 35 34 34 33 32 32 32 33 33 35 37 34 30 30 30
32 32 33 33 33 32 33 33 33 33 34 34 35 36 35 34 34 33 32 32 32 31 31 32 32 32 33 34 34 33 32 30 30 30 31 31 31 34 36 31 28 28 28
32 31 32 32 33 33 34 32 31 32 32 32 34 34 35 34 33 33 33 32 32 30 30 30 31 31 30 33 33 32 31 29 29 29 29 30 31 32 32 30 29 27 28
32 33 32 31 31 33 33 31 30 30 32 33 34 33 34 34 34 34 34 34 33 32 31 30 30 29 30 30 31 33 31 30 29 28 28 29 28 28 29 30 31 30 33
32 32 31 31 32 32 32 30 30 32 30 31 30 31 32 33 33 34 34 33 33 32 32 31 30 30 29 28 28 29 30 30 29 28 28 28 26 26 27 28 28 29 31
28 27 26 27 28 29 31 29 30 29 29 29 29 29 28 28 30 31 31 31 31 31 31 30 30 30 31 30 27 26 26 26 28 28 26 25 25 25 26 24 25 27 30
28 28 26 25 25 26 26 27 29 30 30 28 26 25 25 26 25 25 25 26 29 29 29 29 28 27 26 28 30 31 30 29 29 28 28 27 26 26 25 24 25 25 23
23 22 23 23 23 24 25 26 26 25 25 25 25 26 25 23 23 24 24 23 25 26 26 26 26 25 24 24 24 25 27 27 27 30 30 27 26 24 23 21 19 19 18
25 23 22 22 23 24 24 25 27 28 29 28 26 26 26 25 23 21 20 22 22 22 22 23 24 23 21 21 21 21 21 22 25 25 24 23 23 20 18 17 16 15 14

GFSMW_sfc_dewp_090.txt.gz
Dewpoint
27 29 35 38 35 35 41 64 65 65 65 64 63 62 61 61 63 63 64 64 64 64 64 63 63 63 62 62 62 61 60 60 61 59 55 55 54 53 52 54 53 55 55
24 30 32 40 42 41 50 63 64 64 64 64 63 62 61 61 61 62 62 63 64 63 63 62 62 62 62 62 61 60 59 59 60 57 53 52 53 55 54 54 54 54 53
27 29 33 37 43 48 57 61 64 63 64 64 62 61 61 61 61 61 61 62 62 63 63 62 62 62 62 61 61 60 58 57 59 59 51 51 50 53 55 56 55 55 56
27 28 32 37 40 51 58 59 63 62 64 63 61 60 59 57 59 59 60 61 62 62 62 62 62 62 61 61 61 61 59 58 57 58 54 52 52 51 52 55 55 56 55
39 31 31 36 37 49 57 58 62 61 63 62 62 60 59 58 58 59 59 61 61 61 61 62 62 61 61 60 60 60 60 59 57 56 55 52 53 51 52 51 53 55 54
45 47 48 40 34 47 55 59 61 60 62 61 62 60 59 57 57 58 60 60 60 59 58 60 61 61 61 60 60 60 60 59 58 58 56 52 51 52 51 51 52 52 53
46 47 48 51 51 45 55 58 59 59 61 61 61 60 60 59 58 58 59 59 58 58 57 57 59 60 60 60 60 60 60 59 58 58 56 55 53 54 52 53 52 53 53
46 47 49 51 52 51 57 59 59 58 60 60 60 60 59 58 57 59 58 59 58 58 57 57 57 58 59 59 59 59 59 58 58 59 57 55 56 55 54 52 51 50 51
45 46 47 49 51 54 58 60 59 59 59 59 60 59 59 57 57 59 59 59 58 57 57 57 57 57 58 58 59 59 57 58 58 59 58 57 56 56 55 54 54 49 46
43 44 45 47 53 58 59 60 59 58 58 60 60 58 58 58 59 59 59 59 59 58 57 57 57 57 57 57 58 58 58 58 59 59 58 56 56 56 55 54 55 55 52
42 41 42 43 46 53 57 58 58 58 58 59 59 58 57 57 58 58 59 59 60 59 58 57 57 56 56 57 57 57 57 56 56 57 57 56 57 56 56 56 55 55 55
40 39 39 39 41 42 48 57 58 58 58 59 57 57 57 57 57 58 58 58 58 59 58 58 57 56 56 56 55 55 55 55 54 55 55 55 56 55 55 55 55 55 55
37 36 36 37 37 39 41 45 58 57 57 57 57 57 57 57 57 57 57 57 57 57 58 58 57 56 55 55 55 54 53 53 53 53 54 54 55 54 55 55 55 55 55
35 34 34 35 35 37 39 41 46 57 57 57 57 57 57 57 56 57 58 57 57 57 58 58 57 57 55 55 54 53 54 53 54 54 53 54 55 54 54 54 54 54 53
33 32 32 33 34 35 35 37 40 45 51 51 50 51 51 52 51 50 51 50 50 47 47 46 44 42 41 39 44 53 53 51 51 51 51 51 46 42 44 51 52 53 53
32 31 31 32 32 33 34 35 37 40 43 44 44 44 45 44 44 43 43 42 41 41 40 39 39 39 39 37 38 44 47 47 47 46 46 42 41 37 36 35 34 35 42
31 31 31 32 32 33 34 34 35 37 38 39 39 40 39 38 39 37 37 37 37 36 36 37 37 36 36 36 38 38 38 37 37 36 37 37 37 39 34 33 33 32 32
30 31 32 32 32 32 33 33 33 34 34 35 36 36 36 35 35 34 34 34 34 34 33 33 34 34 34 35 34 33 33 32 32 32 33 33 36 37 34 31 30 30 31
31 31 32 33 33 32 33 32 32 33 33 32 33 35 34 33 33 32 32 32 32 32 32 32 32 32 33 34 33 32 31 30 30 31 32 32 32 34 33 30 28 28 29
32 31 32 32 32 32 33 31 31 31 31 32 32 34 34 34 33 33 33 32 31 30 30 29 30 31 31 34 33 31 30 29 28 29 30 32 32 33 31 30 29 28 30
32 33 32 30 31 32 33 31 31 30 32 32 32 33 33 33 34 34 34 33 32 31 30 28 28 28 29 30 33 32 29 28 27 27 27 28 30 30 31 31 30 30 32
32 31 30 30 32 32 31 30 30 32 33 32 32 32 31 32 33 33 34 34 33 32 31 30 29 28 28 28 29 29 29 28 27 27 27 26 26 27 28 28 29 30 30
30 29 28 29 31 32 33 29 30 31 29 28 29 29 30 30 30 28 30 32 32 30 29 28 27 27 28 29 28 27 27 27 26 27 26 26 25 25 24 24 25 23 26
29 29 28 27 27 28 31 31 32 32 29 28 27 26 25 25 26 26 25 24 27 27 27 26 24 23 23 24 28 29 30 29 29 28 28 27 26 22 20 21 21 21 20
28 28 26 25 25 25 26 28 28 28 29 29 28 26 24 23 22 23 23 23 24 26 23 22 23 21 21 23 24 25 26 28 28 27 26 25 24 21 20 18 17 17 17
27 26 26 25 25 25 25 26 28 28 28 27 27 27 25 23 21 19 19 21 22 22 23 23 22 22 21 20 21 22 23 25 26 24 22 20 19 17 16 15 15 14 13

GFSMW_sfc_dewp_096.txt.gz
Dewpoint
14 19 22 25 27 28 33 62 65 66 66 65 64 63 63 63 63 63 63 62 63 63 62 61 61 62 62 61 60 60 59 60 60 59 59 58 59 59 58 58 58 56 57
16 16 20 21 28 29 31 57 64 65 65 65 64 63 63 62 63 63 63 62 62 62 63 61 61 62 62 61 61 60 59 59 60 57 56 53 54 56 57 57 56 55 55
20 19 18 22 24 32 33 56 63 64 65 65 64 63 60 60 59 61 62 62 62 62 62 61 61 61 61 60 60 60 59 58 60 58 55 52 51 53 55 55 55 55 55
46 46 46 48 50 47 38 52 62 64 64 64 63 62 61 60 60 60 59 61 63 62 61 60 61 62 61 60 60 61 59 59 58 58 59 57 55 51 51 54 54 54 55
47 47 48 48 50 51 53 60 63 64 64 63 63 62 60 59 59 59 59 59 62 62 62 61 61 61 61 60 61 60 59 59 59 57 56 57 55 54 52 51 53 54 54
46 46 46 48 49 50 54 61 63 63 63 62 61 61 59 58 59 58 58 59 59 60 61 60 61 61 61 59 61 60 59 58 58 58 56 55 53 53 51 49 51 52 53
44 44 43 44 45 46 50 56 62 62 62 62 61 60 58 59 58 58 58 58 59 60 60 60 61 61 60 59 61 61 60 59 58 58 57 56 54 53 52 52 50 50 53
41 40 41 42 42 44 48 55 61 62 62 61 60 60 59 58 58 58 58 59 59 59 58 58 59 59 60 60 60 60 60 59 59 58 58 57 56 54 53 52 52 51 52
38 37 39 39 40 43 46 52 60 61 61 61 60 59 59 57 57 58 58 57 56 55 55 56 56 57 57 58 59 60 59 60 59 58 58 57 57 56 55 55 53 52 50
35 35 36 38 39 42 44 48 55 60 60 60 60 59 58 58 58 58 57 57 56 56 55 55 55 56 57 58 59 59 59 59 59 59 58 57 57 57 56 55 54 53 51
33 33 34 36 37 39 42 43 45 55 57 57 60 59 58 58 58 58 57 57 57 57 56 56 55 55 56 57 57 58 58 58 58 58 58 57 57 56 56 55 55 54 53
32 32 33 34 35 36 37 40 42 46 53 56 59 58 59 58 58 58 57 57 57 57 56 56 56 55 56 57 56 56 57 57 57 58 58 57 57 56 55 55 55 54 55
31 31 31 32 33 35 36 37 39 43 47 57 58 57 58 58 58 58 58 58 58 57 57 56 55 55 56 56 55 56 55 56 57 57 57 57 56 55 55 54 54 54 54
30 30 30 31 32 33 35 36 38 41 45 57 56 57 56 56 56 55 54 55 57 58 57 56 56 55 55 55 55 55 55 54 55 55 55 56 56 55 54 54 53 53 53
29 29 30 30 31 32 33 35 37 39 42 44 49 51 51 51 50 48 47 47 46 46 47 47 45 45 44 43 50 54 53 53 53 49 46 44 44 42 46 54 53 53 53
28 28 29 29 30 31 32 33 35 37 39 40 40 43 43 43 43 42 42 41 41 41 40 39 39 39 39 37 41 48 49 50 48 43 41 39 38 36 36 36 35 36 50
28 29 29 29 31 31 32 33 34 35 36 36 37 38 38 37 37 38 37 37 37 37 36 36 35 35 35 36 37 38 39 39 39 40 39 37 35 35 34 33 33 33 33
28 29 29 30 31 32 32 32 32 33 34 33 33 34 34 33 33 33 33 34 34 34 34 34 34 33 34 34 34 34 35 34 34 35 38 35 34 33 33 32 31 31 31
29 29 30 30 31 31 32 32 31 31 31 32 32 32 32 32 32 31 31 31 31 31 32 32 32 32 32 33 33 32 32 32 32 33 33 33 32 33 34 31 30 29 30
29 29 29 29 29 30 31 28 28 28 29 30 31 32 33 32 31 30 30 30 30 29 29 30 31 32 31 32 32 31 30 30 30 31 32 33 32 33 32 30 30 27 28
29 28 28 29 29 29 29 27 27 26 28 29 29 29 30 32 32 32 31 30 29 28 28 28 29 30 30 31 31 31 29 29 28 29 30 31 33 33 32 31 29 28 28
26 26 26 26 28 29 27 26 25 27 28 27 26 26 27 28 29 30 31 30 28 27 26 27 27 28 30 30 31 31 30 30 27 27 28 29 30 30 30 29 29 27 24
25 24 24 25 27 29 29 26 27 27 26 25 25 25 25 25 26 26 27 26 27 25 25 24 24 25 28 29 31 30 29 29 27 27 26 26 24 23 23 23 22 21 20
24 24 23 24 25 27 28 30 30 28 26 24 23 23 24 24 24 25 25 23 23 23 23 23 23 25 26 27 28 29 29 27 24 23 21 20 20 19 18 19 19 18 17
23 23 23 23 23 25 26 28 29 30 26 22 22 22 21 22 23 24 24 23 24 23 22 22 23 23 24 28 30 28 26 25 24 23 22 20 19 17 17 16 16 17 16
23 22 22 21 22 22 23 24 26 27 27 26 24 21 19 18 19 19 21 24 25 25 25 25 24 26 28 29 29 28 26 24 23 19 17 16 16 15 14 14 14 15 14

GFSMW_sfc_dewp_099.txt.gz
Dewpoint
17 17 17 19 23 26 29 53 63 66 66 65 64 64 64 65 65 65 64 64 64 63 63 61 62 63 62 61 62 61 60 60 60 59 59 60 60 60 61 61 60 58 58
17 20 22 20 21 23 30 45 61 65 65 65 64 64 64 65 65 64 64 64 63 63 62 61 62 62 61 61 61 60 59 60 60 58 56 53 55 58 60 60 59 58 57
46 48 48 46 46 38 32 43 59 64 65 65 64 61 61 61 61 62 62 63 63 63 63 62 62 62 61 60 60 60 59 58 60 57 56 52 51 53 56 58 58 56 56
46 45 45 46 48 49 51 45 57 64 65 65 64 62 61 61 61 62 62 61 62 62 62 62 62 62 61 60 60 60 60 59 57 58 58 55 54 52 51 55 56 55 55
45 44 44 45 46 46 48 53 52 62 63 64 64 62 61 61 61 61 59 61 61 61 61 62 61 61 61 60 60 60 59 59 58 57 57 56 55 55 53 52 53 54 54
43 43 43 44 45 44 47 50 57 61 63 64 64 62 61 59 59 60 59 59 60 61 62 61 61 61 61 60 60 60 60 59 58 59 57 55 53 53 53 52 53 53 54
40 41 40 40 41 43 44 48 53 62 63 64 63 62 61 59 59 59 59 58 58 57 61 61 61 60 60 60 59 60 59 59 59 59 57 56 53 53 53 53 53 53 53
37 37 38 38 39 41 44 44 49 62 63 63 62 61 59 59 59 59 59 58 58 58 58 59 59 59 60 59 59 60 60 60 59 59 58 57 56 54 54 53 53 51 52
34 35 36 36 37 39 42 44 48 61 62 62 60 59 59 59 59 58 58 58 58 59 59 59 59 59 59 59 59 60 60 60 59 59 59 57 56 56 55 55 54 51 49
33 33 33 34 36 38 41 44 46 51 60 61 61 60 59 59 58 58 58 58 57 57 57 56 54 55 55 55 57 57 58 59 59 59 58 58 57 56 56 55 55 54 51
31 31 31 33 34 37 39 42 43 46 51 58 60 59 59 58 58 58 57 57 56 56 55 54 53 54 53 56 56 57 57 58 58 58 58 58 57 56 56 56 55 54 52
30 30 31 32 32 34 36 39 40 43 47 51 58 57 59 59 58 57 57 57 56 56 56 55 55 55 55 55 55 56 57 57 57 58 58 57 57 56 56 56 55 54 53
29 29 30 31 32 33 34 36 39 41 43 48 57 58 58 58 58 57 57 57 57 55 56 56 55 55 55 55 55 56 56 56 56 57 57 57 57 56 55 55 54 55 54
28 28 29 30 31 32 33 35 37 39 40 43 55 57 58 58 57 58 58 58 56 57 56 56 55 55 55 55 55 55 54 54 54 55 56 57 57 56 55 55 54 54 54
28 28 28 30 30 32 32 33 35 37 38 39 41 45 51 52 52 50 50 49 49 50 50 48 45 44 43 41 43 53 54 53 49 45 44 43 47 46 50 54 54 54 53
27 28 28 29 29 31 32 32 33 35 36 36 36 38 41 44 43 42 43 43 41 41 40 39 39 38 37 37 39 46 50 48 46 43 41 39 39 37 37 37 35 40 52
26 27 28 29 30 30 32 31 32 33 34 34 35 34 35 36 36 36 36 36 37 37 36 36 35 34 35 36 37 37 39 39 39 40 38 37 36 36 35 34 34 33 33
26 27 28 28 30 30 30 30 30 31 31 32 33 34 33 32 32 32 32 33 33 34 34 33 33 33 34 34 35 35 35 34 34 35 35 34 34 34 34 32 31 30 31
28 28 29 29 29 29 30 29 28 28 28 29 30 32 32 32 31 30 30 31 31 31 31 31 32 32 32 33 33 33 32 32 32 33 33 33 33 34 34 31 29 28 29
27 27 29 28 28 28 28 26 26 26 26 27 28 29 32 31 30 30 30 30 30 29 30 30 30 32 31 33 32 32 31 30 30 31 32 33 32 33 31 30 28 25 25
28 28 28 28 27 27 26 24 23 24 26 27 27 27 28 30 30 30 29 29 29 28 28 28 29 30 31 31 32 31 30 29 28 28 29 31 32 31 31 29 27 25 25
25 26 26 26 29 27 25 23 23 25 25 25 25 25 26 27 28 28 28 28 27 26 26 27 27 28 29 30 31 30 29 28 26 25 27 29 30 30 29 27 27 25 23
25 25 25 25 26 27 27 24 25 24 24 23 23 24 25 25 26 25 25 25 25 25 25 26 26 26 28 28 29 28 27 26 24 25 26 26 25 25 24 24 23 21 20
23 24 23 22 23 25 26 28 26 24 22 22 22 23 24 23 24 24 24 23 23 23 23 24 25 26 27 27 28 26 25 25 23 22 21 21 21 19 19 19 19 19 18
23 22 21 21 21 22 23 25 26 26 22 20 20 20 20 21 23 24 23 23 25 25 23 24 25 26 26 27 28 25 24 23 23 21 20 18 17 17 17 17 17 17 17
20 19 20 19 20 21 21 22 24 25 25 24 21 19 18 19 19 21 23 26 26 25 25 26 26 27 28 27 26 26 24 23 21 18 16 15 15 14 14 14 14 14 14